#timestamp,LO_Frequency,Hit,StdDev 
1606417215.9,286047004.1,N
1606417235.7,286047005.9,Y
1606417255.6,286047001.8,P
1606417275.4,286046999.9,N
1606417295.2,286047000.5,N
1606417315.1,286047000.3,N
1606417316.0,286047000.3,N
1606417335.8,286047000.2,N
1606417355.6,286047000.7,N
1606417375.5,286047001.1,N
1606417395.3,286047000.3,N
1606417415.1,286047001.1,N
1606417435.9,286046997.9,Y
1606417455.7,286046993.3,P
1606417475.6,286046995.6,N
1606417495.4,286046999.2,N
1606417515.2,286046995.3,N
1606417535.1,286046997.9,N
1606417536.0,286046997.9,N
1606417555.8,286046998.0,N
1606417575.7,286046996.2,N
1606417595.5,286046996.4,N
1606417615.3,286046993.4,Y
1606417635.2,286046997.1,P
1606417655.0,286046997.2,P
1606417655.9,286046997.2,P
1606417675.7,286046999.4,Y
1606417695.6,286046998.7,P
1606417715.4,286047000.4,N
1606417735.3,286046998.6,N
1606417755.1,286047001.0,N
1606417756.0,286047001.0,N
1606417775.8,286047004.1,N
1606417795.7,286047001.8,N
1606417815.5,286047001.3,N
1606417835.3,286047003.9,N
1606417855.2,286047002.7,N
1606417875.0,286047001.3,N
1606417875.9,286047001.3,N
1606417895.8,286047001.5,N
1606417915.6,286047003.3,N
1606417935.4,286047001.8,N
1606417955.3,286047002.9,N
1606417975.1,286047002.2,N
1606417995.8,286047000.3,N
1606418015.7,286047000.0,N
1606418035.5,286046998.3,N
1606418055.4,286047001.0,N
1606418075.2,286047002.4,N
1606418095.0,286046997.1,N
1606418095.9,286046997.1,N
1606418115.8,286046999.6,N
1606418135.6,286046999.5,N
1606418155.4,286046996.5,N
1606418175.3,286047002.7,N
1606418195.1,286047000.5,N
1606418215.9,286046998.1,N
1606418235.7,286047000.2,N
1606418255.5,286047001.3,N
1606418275.4,286047007.2,Y
1606418325.2,286046998.7,E
1606418335.2,286046999.9,N
1606418355.9,286047001.3,P
1606418375.7,286047004.2,P
1606418395.6,286046999.7,N
1606418415.4,286047001.9,N
1606418435.3,286047001.6,N
1606418455.1,286047002.7,N
1606418456.0,286047002.7,N
1606418475.8,286047004.0,N
1606418495.7,286047001.6,N
1606418515.5,286047003.1,N
1606418535.3,286046999.8,N
1606418555.2,286047004.3,N
1606418575.0,286047003.6,N
1606418575.9,286047003.6,N
1606418595.8,286047005.6,Y
1606418615.6,286047000.2,P
1606418635.4,286047000.4,N
1606418655.3,286047001.2,N
1606418675.1,286047000.8,N
1606418695.8,286046999.1,N
1606418715.7,286047000.9,N
1606418735.5,286046999.8,N
1606418755.4,286047001.8,N
1606418775.2,286047000.5,N
1606418795.0,286046996.9,Y
1606418795.9,286046996.9,P
1606418815.8,286046996.3,N
1606418835.6,286046995.2,N
1606418855.4,286046996.7,N
1606418875.3,286046997.1,N
1606418895.1,286046997.5,N
1606418915.9,286046995.6,N
1606418935.7,286046995.5,N
1606418955.5,286046999.6,N
1606418975.4,286047000.5,N
1606418995.2,286046999.9,N
1606419015.0,286047003.1,N
1606419015.9,286047003.1,N
1606419035.8,286047005.0,N
1606419055.6,286047004.8,N
1606419075.5,286047005.6,N
1606419095.3,286047007.1,N
1606419115.1,286047009.2,N
1606419135.9,286047008.6,N
1606419155.7,286047010.4,N
1606419175.5,286047009.6,N
1606419195.4,286047009.5,N
1606419215.2,286047009.3,N
1606419235.1,286047011.7,N
1606419236.0,286047011.7,N
1606419255.8,286047010.1,N
1606419275.6,286047011.2,N
1606419295.5,286047012.6,N
1606419315.3,286047011.1,N
1606419335.1,286047009.5,N
1606419355.9,286047012.2,N
1606419375.7,286047009.8,N
1606419395.6,286047010.6,N
1606419415.4,286047010.3,N
1606419435.2,286047009.6,N
1606419455.1,286047008.1,N
1606419456.0,286047008.1,N
1606419475.8,286047008.4,N
1606419495.7,286047006.9,N
1606419515.5,286047005.9,N
1606419535.3,286047004.4,N
1606419555.2,286047001.9,N
1606419575.9,286047002.0,N
1606419595.7,286047001.8,N
1606419615.6,286047002.4,N
1606419635.4,286047000.1,N
1606419655.3,286047000.2,N
1606419675.1,286047000.5,N
1606419676.0,286047000.5,N
1606419695.8,286046998.5,N
1606419715.7,286046998.8,N
1606419735.5,286046997.8,N
1606419755.3,286046999.0,N
1606419775.2,286046999.7,N
1606419795.0,286047002.0,N
1606419795.9,286047002.0,N
1606419815.8,286047000.3,N
1606419835.6,286047001.0,N
1606419855.4,286046998.2,N
1606419875.3,286047000.9,N
1606419895.1,286046998.5,N
1606419915.8,286046998.1,N
1606419935.7,286047000.2,N
1606419955.5,286046999.8,N
1606419975.4,286047000.5,N
1606419995.2,286047002.1,N
1606420015.0,286047004.0,N
1606420015.9,286047004.0,N
1606420035.8,286047005.9,N
1606420055.6,286047002.9,N
1606420075.5,286047005.3,N
1606420095.3,286047004.8,N
1606420115.1,286047008.7,Y
1606420135.9,286047010.8,P
1606420155.7,286047009.4,N
1606420175.5,286047011.9,N
1606420195.4,286047011.4,N
1606420215.2,286047011.0,N
1606420235.1,286047011.9,Y
1606420236.0,286047011.9,P
1606420255.8,286047002.5,N
1606420275.6,286047001.9,N
1606420295.5,286047002.0,N
1606420315.3,286047004.2,N
1606420335.2,286047003.8,N
1606420355.9,286047003.5,N
1606420375.7,286047002.4,N
1606420395.6,286047001.7,N
1606420415.4,286047004.4,N
1606420435.3,286047001.4,N
1606420455.1,286047000.7,N
1606420456.0,286047000.7,N
1606420475.8,286046999.0,N
1606420495.7,286047001.1,N
1606420515.5,286046998.1,N
1606420535.3,286047001.1,N
1606420555.2,286046998.9,N
1606420575.0,286046998.9,N
1606420575.9,286046998.9,N
1606420595.8,286046997.4,N
1606420615.6,286046994.9,N
1606420635.4,286046996.3,N
1606420655.3,286046993.6,N
1606420675.1,286046994.0,N
1606420695.8,286046992.1,N
1606420715.7,286046992.9,N
1606420765.6,286046994.6,E
1606420775.5,286046995.1,N
1606420795.3,286046997.1,P
